Theta_e
338 340 341 340 341 340 340 341 342 341 342 344 346 345 345 344 346 346 347 347 348 347 347 347 347 347 349 349 348 348 342 341 345 348 351 351 347 349 343 347 345 346 349 348
339 340 340 339 340 340 341 341 343 342 342 344 343 344 342 344 345 346 346 347 347 348 347 347 347 347 348 347 347 349 346 346 346 350 352 352 348 348 351 353 349 347 348 347
339 340 339 339 340 341 341 342 342 342 342 344 341 341 344 345 344 346 346 346 346 348 348 348 347 347 348 348 348 348 345 351 352 348 349 347 351 349 347 349 353 351 347 347
339 338 339 339 339 339 341 340 340 341 341 342 341 340 341 343 346 346 347 347 346 347 347 349 348 347 348 348 348 348 344 345 344 343 351 350 350 349 350 347 347 349 345 344
341 339 340 340 340 339 341 339 339 340 341 341 341 338 341 344 344 344 345 345 347 346 347 348 349 347 347 346 348 350 346 346 347 344 346 350 346 352 350 351 348 347 346 343
340 339 339 340 339 339 338 339 340 340 340 340 341 339 338 340 343 344 345 345 345 347 347 347 348 347 347 347 346 346 347 343 342 342 341 343 353 352 350 348 353 350 348 347
341 340 339 338 339 338 339 339 340 342 343 340 340 340 339 340 345 344 346 346 346 346 348 346 348 347 347 345 345 345 342 345 341 344 346 346 348 350 352 347 351 349 349 348
340 341 339 338 339 338 339 339 340 341 340 340 340 340 339 339 342 342 344 351 350 349 348 348 347 348 347 345 345 348 351 344 345 348 348 347 348 352 351 350 350 350 347 346
336 337 336 336 336 337 338 340 338 338 337 339 340 339 337 343 346 342 342 346 349 348 349 349 348 347 346 346 347 349 354 354 353 350 348 348 346 351 352 351 349 345 345 342
332 332 332 331 333 335 336 337 338 338 337 340 337 336 337 336 339 344 344 343 348 349 349 349 347 346 347 347 348 351 350 348 353 353 350 351 349 350 349 346 339 332 324 320
329 329 331 330 334 335 335 337 336 336 336 336 334 333 333 334 336 344 344 345 348 349 350 349 348 347 347 347 350 351 346 344 349 354 350 349 348 342 334 328 320 318 318 315
329 329 330 329 330 329 330 334 336 338 339 336 334 334 334 335 339 342 344 347 347 349 350 349 349 349 348 349 351 351 340 343 351 347 347 348 338 327 322 316 315 315 314 324
329 329 330 330 329 329 328 330 331 332 335 335 333 333 337 337 341 345 344 347 349 350 351 350 350 350 351 351 351 352 349 352 349 345 348 343 326 329 318 315 313 313 313 316
326 328 329 330 330 330 329 329 330 331 335 333 333 332 333 334 339 346 346 349 351 352 352 352 351 351 352 352 353 353 354 351 343 342 348 331 328 323 319 314 313 313 312 319
329 331 331 330 330 329 329 329 329 331 334 332 332 331 331 334 340 340 346 349 352 353 353 353 353 355 356 356 357 354 349 344 337 342 345 325 324 323 319 315 313 311 313 321
329 333 331 332 331 329 329 329 329 330 330 330 331 331 332 339 342 342 342 348 352 354 354 354 355 357 357 358 356 350 348 348 344 347 333 324 324 325 322 318 313 312 314 318
335 333 333 331 331 330 330 330 330 330 331 331 331 332 334 337 341 343 343 346 350 353 355 355 356 358 358 358 350 349 349 349 348 344 325 324 324 324 324 319 314 313 316 327
338 338 336 333 333 331 332 337 332 331 332 332 333 334 335 340 342 342 341 345 348 353 355 357 357 357 358 356 353 352 351 349 347 329 325 325 325 325 324 321 316 313 320 325
337 337 334 336 334 331 331 335 337 337 333 333 334 335 338 341 342 343 342 344 349 353 356 357 357 357 357 354 351 352 349 343 331 325 325 325 326 326 325 323 318 315 320 327
336 339 339 336 337 335 333 338 338 338 335 341 339 342 343 342 345 350 344 345 351 354 356 357 356 356 353 351 351 350 340 331 327 326 326 327 328 328 327 325 318 319 315 324
337 338 335 334 335 334 339 339 339 339 340 340 341 342 343 345 348 345 344 348 353 354 356 356 355 353 352 351 347 340 331 329 329 328 329 331 334 337 329 325 317 314 316 324
337 336 336 336 337 338 339 340 341 344 341 342 342 342 343 344 346 347 345 346 350 351 351 352 353 351 350 341 343 337 334 331 331 331 333 336 339 333 330 322 318 314 316 325
340 337 341 340 341 341 339 339 340 340 342 343 342 342 341 341 347 351 347 345 346 347 348 349 349 348 336 338 341 337 334 332 332 334 335 338 334 329 325 322 318 324 319 322
340 338 339 341 338 338 337 337 338 339 341 343 343 341 340 343 348 349 347 347 347 348 347 346 346 345 342 336 339 336 335 333 333 334 337 334 329 327 324 327 326 324 323 323
338 339 340 340 338 337 337 337 338 339 341 343 345 347 349 351 351 349 348 348 347 346 345 341 340 336 334 337 339 337 333 333 336 337 334 332 331 328 327 324 323 324 324 323
336 337 339 342 338 339 339 338 338 339 342 343 349 349 349 349 349 349 347 347 346 344 344 344 342 342 340 338 337 335 336 337 334 334 332 329 327 325 323 323 324 322 317 319
Wind_Speed
10 10 11 8 3 7 3 5 5 5 4 5 9 13 10 12 17 18 18 17 18 17 13 14 14 13 11 12 11 11 13 14 12 10 6 5 7 7 6 6 5 5 4 6
9 9 8 5 4 1 1 2 6 3 4 6 6 13 7 8 16 19 18 18 17 16 16 15 15 14 12 13 12 11 15 17 16 9 8 6 5 6 5 4 5 5 7 7
14 10 7 5 5 6 3 8 7 7 7 5 10 11 2 3 9 14 17 17 17 17 18 17 17 15 13 14 14 12 14 15 14 10 9 8 5 6 5 4 3 4 6 8
13 10 6 5 3 7 5 4 6 8 8 6 3 9 8 4 4 10 15 18 18 17 18 18 18 16 13 14 13 14 16 18 17 11 9 10 6 7 7 5 6 5 9 8
11 11 10 10 2 3 6 3 6 8 11 8 7 7 8 4 7 3 14 17 16 15 16 18 18 16 13 14 13 12 13 16 16 14 14 10 9 6 5 4 5 3 4 4
12 6 8 11 6 2 1 5 10 9 8 11 6 5 2 9 7 5 7 12 13 14 13 16 17 17 15 15 13 12 15 16 14 16 14 12 11 6 4 5 2 5 6 4
14 14 10 8 10 7 7 13 11 8 6 5 4 8 4 9 6 2 4 10 13 13 14 17 19 19 17 18 14 12 16 15 14 12 10 10 9 7 5 6 5 7 5 2
14 15 15 12 15 14 6 12 8 7 9 9 4 7 5 5 1 5 8 10 14 16 17 18 19 18 18 18 15 14 15 18 14 12 9 7 6 6 5 5 5 2 2 7
9 16 6 12 12 12 13 13 10 11 9 8 5 2 12 7 5 10 10 13 17 18 18 18 19 19 19 18 17 17 15 13 12 12 9 6 5 5 5 5 4 1 5 7
8 6 6 4 10 12 15 5 7 11 8 9 1 4 6 9 2 10 13 17 19 19 20 19 20 20 19 18 17 16 16 15 13 10 8 7 5 4 4 4 4 5 8 7
8 10 8 6 11 14 11 13 12 12 5 9 10 3 4 7 6 9 15 19 21 22 22 21 21 20 19 18 17 18 17 17 13 11 10 8 5 2 1 2 5 5 6 6
14 8 9 11 5 5 11 16 19 11 13 9 8 11 13 7 3 5 16 18 21 22 23 22 22 22 21 19 17 17 14 15 12 12 9 8 5 2 1 4 4 5 5 3
11 9 8 9 10 8 10 15 15 16 15 10 10 8 4 3 3 6 17 20 19 21 23 23 23 22 21 20 19 18 16 13 12 11 10 8 5 3 2 3 4 4 4 3
7 15 10 9 10 4 14 15 16 18 13 11 9 14 11 6 4 8 17 24 23 23 24 24 23 22 20 19 18 17 17 15 14 14 11 9 6 3 2 3 3 4 4 2
8 11 12 14 11 8 12 11 13 16 18 14 11 6 11 6 3 2 15 23 25 24 23 23 23 22 21 20 18 18 18 15 15 14 12 11 9 3 3 4 5 5 4 3
7 6 5 12 12 10 14 14 13 15 15 13 14 14 15 3 2 2 12 24 28 29 26 23 22 21 22 22 21 21 19 19 16 16 14 13 7 3 5 5 5 5 4 3
5 5 6 11 1 6 10 16 15 14 13 14 14 13 9 8 9 9 9 20 30 31 29 27 26 24 23 23 24 23 22 19 19 18 16 12 6 6 6 6 5 5 4 4
2 4 4 10 3 12 3 5 8 14 13 14 14 14 13 11 14 14 12 18 29 31 30 28 26 24 22 20 20 20 21 20 19 21 17 11 8 7 7 7 7 7 5 5
3 5 7 8 12 16 5 5 6 10 14 14 14 11 10 10 11 14 10 15 23 27 27 26 24 22 21 21 22 21 18 19 20 17 13 11 9 8 8 8 8 7 7 6
4 4 8 8 11 16 8 9 2 2 10 14 7 7 10 7 9 8 2 9 14 19 21 21 21 21 20 20 18 19 19 22 20 16 12 9 6 7 9 10 9 8 7 6
8 7 10 10 11 11 8 5 2 9 2 13 10 9 8 5 7 5 6 9 12 15 17 19 21 21 19 17 16 20 21 19 16 13 10 8 9 11 9 9 9 9 8 8
10 9 8 7 10 14 6 2 6 6 9 11 12 10 9 4 2 4 8 11 11 13 16 17 19 20 19 12 17 17 17 17 15 12 10 9 9 8 8 9 10 9 9 8
6 5 6 5 4 2 5 6 7 7 8 10 11 10 7 3 2 4 10 14 14 15 16 15 17 21 17 13 17 18 16 14 13 12 11 9 9 9 10 11 10 7 8 6
4 2 4 4 3 1 7 4 6 6 8 7 7 6 4 3 2 7 11 14 16 15 19 18 15 15 13 11 12 12 14 16 14 11 10 10 8 9 10 8 7 7 8 9
5 4 3 7 6 4 5 3 3 4 4 3 2 2 2 5 8 10 12 15 20 15 16 13 12 14 16 15 14 14 15 14 11 10 9 9 7 9 7 8 9 10 11 11
6 2 5 5 5 6 10 7 6 7 2 5 7 12 14 16 15 11 9 9 12 13 14 15 15 13 13 14 13 13 12 9 8 7 7 6 6 6 7 7 9 11 10 14
Wind_Direction
189 199 199 192 325 38 46 323 324 76 45 263 262 278 274 204 210 216 214 206 206 211 204 206 195 201 200 203 211 218 222 213 221 218 204 216 212 219 229 241 282 294 296 297
178 221 101 118 155 187 336 255 37 146 1 286 322 290 279 206 214 213 217 218 215 210 206 201 195 194 199 209 212 214 212 216 211 205 203 201 201 205 208 237 277 314 288 286
214 107 145 154 171 245 142 353 16 345 303 221 307 242 191 160 214 214 218 220 221 218 209 205 201 203 215 217 217 221 210 196 190 201 207 215 201 213 238 255 292 275 290 279
224 120 196 199 206 280 286 39 315 313 302 6 344 332 101 109 167 212 221 220 222 218 214 210 208 205 210 210 216 201 198 202 200 221 205 217 211 218 219 245 292 295 291 296
191 189 204 238 28 296 56 325 321 295 284 290 95 312 78 129 71 32 202 216 215 216 210 204 203 204 196 192 190 192 195 197 203 219 207 222 223 244 251 254 307 326 312 297
219 183 229 251 117 343 64 260 244 250 272 262 71 344 339 27 15 64 162 198 204 200 198 195 194 194 188 182 180 192 198 202 208 217 229 222 216 238 267 275 270 299 304 306
208 204 198 217 226 189 245 265 276 256 220 305 66 299 345 25 45 53 136 171 185 188 184 181 181 185 184 183 181 184 187 194 189 182 190 194 215 227 249 278 277 304 290 248
210 210 216 206 243 270 238 286 291 298 290 323 81 272 335 356 291 151 139 150 157 163 168 175 180 184 184 185 182 178 176 178 180 182 192 203 216 240 247 268 295 270 237 285
216 237 135 239 241 235 222 230 276 292 240 259 279 337 276 85 102 164 163 168 167 164 164 170 176 179 179 177 178 178 178 175 173 178 185 203 210 201 210 281 307 309 300 292
190 240 209 202 228 238 259 282 209 218 269 270 286 296 265 325 66 172 169 177 175 169 166 171 177 179 178 175 177 172 180 178 166 165 176 175 199 231 262 270 273 282 298 295
218 240 143 205 208 213 198 231 238 290 300 297 286 292 36 301 330 168 181 176 177 177 174 176 179 182 179 177 177 176 178 180 173 165 176 173 173 199 256 297 312 311 305 302
219 223 226 206 148 301 292 233 236 234 236 234 297 288 291 315 353 189 172 178 177 180 180 180 181 182 183 181 178 178 165 167 180 194 188 175 171 124 346 329 319 305 300 297
181 224 225 216 186 203 239 237 251 258 255 277 286 290 59 300 219 202 174 174 173 177 180 181 183 186 186 186 184 186 188 180 179 190 193 183 167 124 333 334 318 311 303 292
224 242 229 247 234 318 204 227 226 246 236 237 236 277 300 239 230 171 189 177 177 179 181 182 183 188 185 184 183 183 177 186 197 191 191 180 160 209 256 331 333 321 316 275
224 243 249 260 276 273 238 222 217 233 252 263 273 314 304 338 344 265 202 184 180 182 184 183 180 182 185 183 182 177 181 189 186 191 189 188 200 215 313 332 334 331 320 281
203 259 275 266 250 243 247 246 208 222 251 247 263 287 289 33 338 260 211 193 189 185 187 183 180 180 179 181 180 187 193 198 197 193 187 203 203 243 280 317 318 319 305 284
209 254 245 270 28 236 241 243 236 237 223 236 247 271 349 284 287 293 250 210 200 192 186 185 181 181 183 184 190 194 200 202 203 193 199 205 209 252 280 291 306 309 289 262
224 250 284 276 255 248 325 348 263 232 229 234 252 276 291 302 288 280 251 219 205 194 188 186 184 180 182 180 185 194 205 200 197 193 195 200 221 246 270 293 300 291 272 266
270 263 257 256 253 263 189 219 213 217 243 230 253 279 302 300 285 260 229 218 204 193 190 190 186 179 175 179 186 197 199 191 186 193 196 207 224 247 273 285 288 277 267 255
225 250 261 250 270 264 297 74 118 234 241 20 338 308 304 295 277 62 123 192 188 188 188 183 179 174 175 185 193 196 189 185 187 193 201 217 243 262 276 283 280 271 275 266
213 238 245 244 250 261 43 76 197 228 322 334 323 315 305 291 354 354 120 157 173 175 177 173 171 166 171 179 191 186 187 188 191 192 200 219 248 273 262 270 277 283 274 250
235 238 233 236 271 257 26 141 255 6 325 326 319 314 312 329 53 99 128 151 162 157 156 158 158 162 161 165 186 182 184 189 193 199 209 232 262 256 250 271 281 280 270 261
241 275 306 328 17 46 322 289 272 288 298 308 305 301 297 321 36 114 135 140 145 146 144 152 153 157 155 174 179 177 190 197 201 211 221 244 251 245 262 279 277 268 273 243
188 228 262 303 145 287 308 304 272 261 276 296 300 309 291 330 66 122 135 135 134 136 130 129 140 150 167 161 181 198 191 194 206 218 233 252 243 255 274 261 264 259 256 254
36 174 245 249 259 292 138 1 294 244 273 310 23 61 66 96 98 124 132 131 124 141 122 117 131 135 152 161 175 192 193 192 205 230 235 226 231 260 254 269 247 252 248 240
183 326 251 33 13 318 309 328 322 201 159 79 91 98 92 87 80 88 97 125 132 121 124 124 125 129 137 147 163 174 174 186 203 210 224 236 249 259 262 259 273 282 266 259